GFSWCAN_2pvu_pres_159.txt.gz
Presure
401 381 370 365 355 346 329 319 317 342 342 349 340 327 322 318 320 313 317 318 317 314 315 327 338 342 355 371 389 437 371 298 295 291 286 288 285 292 283 274 270 268 271 271 272 274 289 272 267 266 259 251 252 242
382 420 385 350 360 346 324 313 350 314 386 351 345 329 322 323 323 324 322 325 324 322 310 314 314 317 330 342 348 359 431 407 325 292 295 283 282 285 285 286 277 279 270 265 270 284 273 265 260 264 264 259 257 257
396 385 373 374 355 355 317 317 339 329 377 355 348 327 323 324 320 322 320 323 335 332 324 317 311 316 320 324 336 337 353 426 379 361 313 293 288 288 283 280 281 278 279 277 270 264 274 278 279 273 271 271 272 276
444 399 371 343 347 353 324 324 340 340 334 339 333 320 310 305 311 321 326 321 332 331 339 314 327 322 321 324 326 326 332 403 352 357 327 307 298 298 299 289 292 290 287 283 282 278 273 271 272 273 274 270 271 279
370 368 366 370 371 354 344 350 333 338 333 325 321 318 314 307 308 320 325 340 339 346 338 317 316 323 322 326 327 331 365 353 347 324 327 328 307 296 296 305 301 292 299 303 299 295 287 282 279 275 275 279 280 278
373 363 357 354 351 353 354 340 315 307 309 313 316 317 307 305 307 309 332 347 334 331 320 309 311 324 448 482 512 443 345 334 319 306 304 302 296 299 309 297 322 332 329 329 321 332 313 303 300 292 298 302 299 311
364 357 355 355 357 355 352 338 317 316 314 319 319 297 294 297 311 321 346 309 322 311 311 336 416 421 437 397 393 401 327 310 299 308 314 302 304 315 302 291 310 322 314 311 315 309 318 302 291 301 295 294 285 143
328 326 335 338 339 342 349 351 342 337 334 335 293 293 300 306 316 329 328 316 309 309 369 399 355 341 352 333 313 309 304 294 290 295 307 300 286 290 281 286 290 290 316 305 310 300 297 295 277 281 275 282 290 290
337 333 327 326 325 323 322 320 313 318 313 311 307 312 315 313 315 314 314 318 312 402 353 354 329 317 309 292 296 296 285 291 291 286 291 290 286 272 276 280 286 295 297 287 318 291 285 274 284 285 284 283 284 296
381 387 388 400 353 344 345 339 336 331 327 326 334 331 334 336 334 325 323 335 438 325 311 310 307 295 296 293 287 289 279 287 300 294 288 283 274 264 260 282 291 287 261 280 300 307 297 287 288 288 292 272 293 283
355 350 371 362 365 365 373 407 407 398 383 377 356 359 362 361 362 372 387 371 309 311 304 310 302 300 298 297 296 281 276 267 295 278 267 258 274 260 277 280 273 263 265 274 285 246 255 287 264 270 185 272 294 299
356 358 333 335 349 360 360 357 366 365 369 366 357 382 407 441 415 436 378 309 310 298 301 303 311 313 310 285 286 276 282 304 275 278 272 257 277 285 276 276 286 283 288 289 285 282 302 272 324 331 322 338 344 344
366 353 342 327 320 323 325 331 330 342 354 361 361 341 378 381 433 337 316 303 306 290 290 291 297 303 287 294 287 288 279 294 287 272 274 269 273 277 280 281 285 281 292 275 295 276 296 314 302 306 308 312 322 347
347 367 365 347 349 331 312 311 342 338 336 348 341 342 359 348 332 321 313 310 294 304 296 283 305 311 291 295 282 296 285 289 281 271 293 280 282 285 283 288 295 285 293 314 292 337 304 293 288 288 290 298 300 306
285 278 353 350 346 343 341 337 309 338 312 328 335 345 358 318 324 308 295 313 303 281 315 281 285 283 300 298 272 283 286 280 274 274 290 278 291 291 294 290 295 291 308 309 320 298 286 286 282 282 289 287 288 291
306 294 280 279 347 345 343 349 349 351 319 309 305 353 324 311 303 288 305 282 289 289 284 282 311 312 290 286 282 305 295 275 274 266 269 272 274 260 272 286 304 281 307 314 300 287 279 285 288 288 286 283 283 281
270 268 301 288 274 279 344 342 337 337 343 342 333 305 321 297 315 306 310 308 279 269 273 308 277 297 284 290 282 284 284 281 288 290 295 300 298 286 272 296 286 339 321 299 291 294 291 285 290 292 298 298 286 285
265 273 264 295 296 281 273 274 306 329 333 334 333 339 348 337 314 309 297 297 296 293 298 306 310 299 283 269 271 279 283 282 308 291 286 293 305 343 300 319 338 318 301 288 297 299 298 296 302 301 298 304 314 320
269 268 264 270 262 299 291 278 272 269 281 308 322 333 335 334 331 342 340 330 316 317 313 302 308 306 318 297 308 306 330 349 353 376 389 388 383 358 360 330 304 300 289 293 291 296 305 299 294 294 293 295 293 292
276 275 268 270 268 271 290 297 290 277 267 262 270 291 307 316 324 331 330 332 339 347 349 347 344 345 332 301 368 376 343 320 340 335 356 353 348 324 312 299 290 287 290 297 311 313 295 290 285 278 276 274 270 268
276 279 275 270 273 263 262 271 265 301 295 275 269 264 258 264 294 309 317 323 325 327 334 343 372 371 350 312 320 336 326 334 335 344 334 321 311 302 303 300 287 296 306 309 295 290 286 278 274 268 265 262 261 251
282 279 284 276 275 272 270 264 265 264 261 304 295 281 269 264 258 258 260 284 307 322 330 329 336 339 345 319 323 327 325 327 329 335 321 300 300 297 302 309 309 307 293 287 283 275 271 266 264 260 255 252 250 250
287 286 277 295 275 278 276 268 270 263 269 262 261 284 299 281 271 267 263 258 257 258 273 292 303 318 327 325 321 318 315 316 325 324 322 318 314 311 306 303 298 285 277 273 266 263 258 252 251 250 251 252 248 241
297 281 271 271 293 278 278 281 275 274 262 263 267 268 261 291 305 283 273 267 266 261 260 258 259 260 267 279 277 295 299 305 308 308 305 304 297 288 283 277 274 271 261 253 249 249 251 249 247 246 244 243 242 242
300 292 289 282 292 288 278 292 288 281 275 264 265 265 263 267 261 323 318 291 281 272 269 262 261 260 260 258 257 257 252 251 250 249 248 250 249 248 249 248 246 247 247 248 246 246 243 241 241 243 247 249 248 246
311 306 298 293 293 292 306 286 288 295 294 281 270 260 263 265 270 271 263 286 332 304 287 282 275 271 267 262 260 259 258 257 255 252 250 250 249 248 247 247 247 246 246 246 246 246 247 247 248 248 249 251 252 256
326 319 315 312 302 291 292 295 296 280 291 292 295 279 267 263 262 263 270 277 268 264 277 310 315 301 290 283 278 272 267 264 263 262 260 256 254 253 253 254 254 254 253 253 253 254 254 254 256 257 259 261 263 264
338 333 323 306 303 306 303 305 306 302 291 279 289 293 275 292 263 267 266 264 271 276 271 264 264 268 297 330 320 306 299 293 288 284 276 273 269 267 266 266 265 265 264 264 263 263 263 264 264 264 265 268 271 274
342 339 321 335 339 319 312 325 332 306 322 296 305 297 319 275 271 272 278 263 263 268 275 280 280 272 263 263 274 277 338 339 329 324 318 311 306 299 294 291 289 287 283 281 279 278 277 277 276 277 278 280 283 287
341 383 374 361 343 326 325 322 318 317 322 322 293 294 285 276 274 271 271 279 274 271 264 269 276 276 279 280 273 266 264 268 274 282 284 323 321 341 334 328 322 316 311 307 303 300 298 297 297 296 297 298 300 303
367 357 345 344 339 328 347 346 339 333 330 327 335 341 338 293 268 269 275 275 281 280 271 268 268 272 277 284 284 281 282 278 268 263 263 267 274 278 286 353 357 351 343 337 331 326 322 320 318 317 316 318 320 323
353 342 336 330 328 326 328 375 365 356 347 350 349 345 336 331 312 284 265 267 276 275 275 277 270 268 268 274 279 290 289 286 285 284 279 267 263 267 278 281 372 365 360 355 350 345 339 337 335 330 325 323 326 334
383 379 369 357 353 342 340 341 334 326 326 329 344 344 341 330 328 312 253 284 277 271 278 276 276 274 267 265 268 275 300 295 293 290 293 280 282 266 270 276 287 364 361 357 352 343 340 338 332 330 329 332 345 324

GFSWCAN_2pvu_pres_162.txt.gz
Presure
377 391 410 398 382 373 364 355 347 350 379 363 344 336 329 319 312 313 308 305 304 318 316 309 321 342 374 403 382 376 368 325 307 303 303 291 296 291 288 287 287 280 278 277 277 279 281 276 285 282 277 277 272 268
382 376 392 384 371 356 354 351 339 330 336 340 340 352 341 327 322 320 310 305 310 316 308 310 312 318 328 339 353 376 381 399 332 305 306 299 294 293 290 281 278 280 277 279 280 279 275 279 280 285 281 279 271 266
404 399 371 408 368 356 351 333 324 322 318 311 331 328 339 334 328 317 312 307 308 306 313 305 310 309 311 319 329 331 346 359 377 421 336 310 296 298 280 286 284 282 278 274 276 269 270 268 268 269 269 265 270 266
424 398 376 385 377 353 353 333 321 310 337 332 333 351 337 333 326 312 311 311 316 315 315 311 313 317 323 321 319 318 325 337 350 362 430 396 317 307 285 285 288 278 276 274 277 271 270 266 266 266 264 263 268 267
368 369 370 358 366 370 345 349 326 312 338 341 389 350 337 328 315 317 309 308 317 325 308 314 314 322 333 339 335 318 318 325 335 345 391 391 361 312 294 289 281 278 276 282 274 273 275 273 269 271 275 273 269 265
365 355 359 370 360 338 329 340 322 339 333 333 327 338 325 316 310 305 307 307 316 341 318 320 316 312 326 333 329 323 325 324 324 334 407 371 334 327 321 302 313 315 306 297 285 285 281 277 280 278 278 277 272 274
359 358 367 355 356 351 341 341 344 320 307 311 321 314 316 317 321 307 304 324 337 328 323 322 313 316 313 323 343 327 324 316 325 404 371 317 305 303 296 296 296 296 296 315 325 332 324 322 315 305 298 298 287 289
339 339 339 346 352 349 351 340 325 304 308 307 307 312 329 309 296 294 318 319 347 312 314 308 325 375 377 383 373 423 336 364 337 332 317 301 294 296 300 299 307 298 303 305 322 317 306 314 322 309 295 288 136 283
350 334 326 325 334 344 342 336 331 327 324 327 314 321 299 291 294 301 318 326 303 292 311 348 366 346 342 333 354 336 312 308 307 308 298 293 306 298 292 297 293 294 292 304 300 302 307 307 296 294 289 281 281 283
441 359 349 341 332 321 322 320 339 331 328 308 301 300 300 303 325 315 317 300 296 296 300 334 326 320 319 320 314 311 306 295 294 293 297 294 287 279 282 282 296 283 282 284 284 300 293 277 300 285 293 287 286 293
358 373 384 400 381 364 359 336 328 323 320 312 306 308 307 312 317 321 315 296 291 354 347 315 321 310 319 308 305 296 289 295 286 273 294 287 270 275 280 276 281 286 282 286 283 279 285 290 294 299 294 289 293 302
357 338 332 333 354 369 351 384 377 367 349 355 360 343 357 352 341 349 350 345 347 337 324 320 308 296 295 295 308 298 284 284 290 282 281 281 285 277 278 276 271 284 282 263 295 282 260 271 284 265 298 260 288 300
357 346 347 317 322 341 364 358 342 348 348 349 352 370 382 412 456 393 372 356 327 336 317 308 301 300 291 288 279 273 291 277 287 286 280 272 274 253 266 268 280 283 276 275 291 262 260 289 281 322 323 320 316 313
285 361 362 355 338 325 323 337 355 347 339 332 348 359 376 390 414 369 347 325 325 308 308 295 301 298 292 286 289 290 297 271 292 282 275 272 273 265 256 263 271 271 276 276 283 294 283 289 336 301 295 301 299 302
301 284 320 351 355 351 321 321 317 336 332 331 348 357 342 335 334 326 324 320 303 297 314 302 296 308 298 291 290 290 280 280 279 295 286 278 279 280 281 274 272 269 275 288 283 287 291 320 279 296 289 290 289 290
267 297 289 275 349 347 362 336 321 328 341 336 344 324 315 307 314 309 309 304 288 273 285 307 304 286 315 317 277 298 282 277 281 288 304 290 287 275 272 271 284 270 267 292 303 301 322 300 295 288 285 278 277 283
276 264 298 293 279 281 347 345 345 341 320 344 339 330 314 302 307 310 305 306 286 305 285 283 283 271 311 259 294 273 274 264 277 284 289 266 269 272 279 294 199 233 297 278 293 338 305 293 288 282 284 286 285 282
278 267 275 262 302 286 276 275 332 338 341 342 354 334 311 319 311 312 307 290 281 285 291 294 308 280 267 284 270 289 305 295 288 275 279 259 278 311 293 291 258 300 301 317 338 307 295 288 288 287 288 293 299 302
279 278 269 270 266 278 292 282 274 268 314 336 342 349 335 313 318 319 308 299 302 296 290 288 296 284 288 290 289 291 286 274 277 280 281 295 297 291 304 335 301 272 343 338 306 296 289 291 289 290 293 291 294 295
281 280 278 273 264 274 265 273 297 280 273 266 277 320 332 338 341 334 334 322 319 319 320 326 330 301 313 275 274 289 305 306 316 306 377 359 351 370 370 358 341 336 323 307 296 297 298 294 294 294 285 285 281 281
286 280 283 279 272 265 266 271 257 308 290 280 272 267 263 267 312 321 326 331 330 327 329 333 345 340 335 313 346 355 354 332 323 328 334 340 358 360 341 322 319 310 304 297 294 290 296 312 299 286 278 274 270 265
290 292 286 280 282 281 274 264 267 265 259 296 292 281 276 268 265 265 259 283 316 330 333 329 331 346 352 332 326 336 338 333 337 334 341 338 316 312 314 308 306 298 294 293 298 303 309 289 282 276 269 265 265 263
294 278 283 283 276 291 282 279 275 260 265 265 260 283 304 286 278 271 266 263 261 260 263 286 316 333 333 320 320 318 315 326 325 327 332 306 308 300 302 308 301 297 303 303 305 293 284 275 270 263 262 259 254 253
294 299 300 293 287 290 284 282 284 283 269 263 265 269 260 261 331 294 282 274 269 265 261 261 260 260 267 298 316 321 323 319 316 318 317 313 309 309 312 312 308 304 304 293 278 272 268 264 258 248 245 247 248 246
314 306 304 279 282 286 291 282 304 280 291 277 264 263 266 269 262 256 260 303 291 281 274 271 263 261 260 260 259 258 256 255 256 256 260 291 303 300 298 292 289 253 253 251 249 249 249 249 247 246 245 244 240 240
333 317 304 291 291 293 291 291 292 294 286 283 291 277 266 262 266 263 263 256 257 262 300 291 282 274 270 267 261 259 259 258 259 258 255 254 255 256 256 255 253 251 252 252 251 250 249 248 247 247 247 247 248 248
328 323 320 316 306 298 293 292 295 296 288 281 273 279 289 266 259 263 270 269 269 261 260 264 293 308 293 282 277 273 268 265 263 262 261 258 255 253 252 250 249 251 251 251 250 250 249 250 250 251 252 253 255 257
334 324 321 315 310 310 305 301 303 301 302 309 301 280 276 289 291 270 262 264 265 273 271 270 258 260 264 317 331 310 300 295 287 282 277 273 269 266 265 264 264 264 264 264 264 264 264 264 264 264 264 264 264 267
355 343 333 323 324 322 316 310 304 306 300 299 300 299 302 282 285 295 274 276 275 269 272 269 272 275 274 263 260 262 270 276 337 328 324 314 307 301 296 294 292 291 291 290 290 290 289 289 288 288 288 289 291 292
356 349 359 353 345 333 326 329 328 334 334 312 306 304 309 335 300 281 289 286 272 274 273 269 268 274 274 273 277 278 273 267 262 260 260 275 270 271 278 342 345 316 339 338 335 331 327 323 320 317 314 311 310 311
400 381 368 340 328 329 348 338 339 337 329 327 336 337 329 319 276 286 280 286 278 272 275 276 280 270 265 269 276 283 277 275 280 279 280 275 272 265 261 261 259 262 273 276 277 296 354 347 342 339 331 327 329 329
388 374 385 364 352 340 333 329 333 350 352 355 351 343 337 332 330 334 334 320 273 269 267 273 277 281 279 273 268 266 274 281 289 288 286 280 280 281 283 277 277 266 263 265 268 277 360 353 350 348 338 336 336 333
447 433 400 385 365 364 352 365 345 335 333 326 319 322 323 318 312 290 280 267 336 269 265 274 267 274 272 279 279 273 267 264 269 275 297 294 295 289 286 290 285 288 277 266 267 274 361 356 350 350 340 335 332 333

GFSWCAN_2pvu_pres_165.txt.gz
Presure
375 368 375 384 423 420 434 402 369 391 382 374 359 344 330 325 322 309 307 306 302 303 300 309 289 326 321 331 427 419 429 399 343 314 309 308 304 304 299 291 295 290 284 286 285 287 290 282 270 285 288 232 293 295
392 391 379 384 403 403 402 377 384 381 370 357 350 344 342 332 318 309 307 305 302 302 299 306 308 313 328 328 326 366 387 385 377 370 323 309 317 309 305 288 286 285 282 283 289 286 287 285 282 282 286 284 284 282
421 418 391 377 390 373 370 367 365 350 344 343 379 354 349 333 320 314 306 306 301 302 307 304 307 317 322 321 316 319 342 356 373 367 364 329 326 324 310 299 297 290 281 277 278 275 285 284 279 279 273 271 271 271
392 394 380 396 379 364 354 354 349 339 332 335 340 352 342 329 321 315 311 309 306 307 299 304 303 311 314 315 314 306 317 324 341 357 376 391 366 332 336 302 288 287 276 271 270 272 277 277 278 273 268 269 271 271
370 370 368 394 370 354 344 337 330 323 323 319 308 318 322 322 324 322 316 314 310 301 295 308 199 314 315 319 329 327 323 321 321 330 347 357 375 403 333 316 285 283 280 277 272 267 272 276 276 268 271 267 265 264
366 370 367 367 369 347 348 336 322 318 301 320 330 315 319 321 320 319 319 314 302 297 300 301 309 311 314 321 331 328 341 343 336 320 327 333 343 371 411 341 296 284 277 278 272 281 281 277 272 276 276 269 266 263
370 367 372 353 347 352 334 341 326 316 313 333 333 345 357 333 325 327 307 301 303 300 296 302 302 309 314 321 324 327 338 340 332 325 319 324 333 412 367 343 316 303 298 280 272 273 280 284 280 281 284 274 276 275
339 351 361 353 340 334 328 329 321 329 334 334 325 350 331 328 322 308 293 292 296 299 310 320 312 321 322 318 335 352 413 410 318 319 319 325 453 390 334 309 301 305 304 297 303 318 319 323 320 331 323 313 296 296
342 334 333 344 347 345 340 340 337 316 306 303 305 315 310 316 308 302 298 291 291 299 360 313 306 328 288 345 338 363 357 322 317 321 338 342 331 309 300 294 291 289 282 297 297 300 284 315 312 312 310 315 315 283
363 346 330 323 333 338 340 339 319 309 307 307 310 312 327 307 298 286 280 289 342 324 314 317 306 337 326 329 324 328 327 326 327 322 325 309 298 293 294 289 289 282 287 290 301 302 292 290 291 290 294 293 288 303
409 417 375 347 331 324 320 324 324 328 321 317 308 322 324 293 288 293 309 312 301 307 306 299 333 324 321 317 313 304 294 311 304 304 299 290 295 287 287 283 288 288 281 279 245 282 275 283 283 274 275 287 288 287
343 364 367 359 367 349 333 326 322 317 317 328 322 309 306 302 316 322 305 307 294 303 302 335 324 311 305 317 294 284 292 296 283 281 292 289 285 280 280 278 275 284 282 238 287 257 262 280 275 288 288 286 294 305
367 346 340 342 357 375 379 367 346 337 331 328 332 330 328 322 321 326 342 321 298 299 306 321 311 302 313 307 289 295 284 282 285 286 284 281 282 280 270 272 271 275 269 275 284 281 267 294 283 261 263 204 287 299
292 351 335 327 338 343 351 343 340 333 333 353 362 365 376 377 402 376 360 355 318 290 321 310 305 301 295 309 289 271 292 280 278 277 288 283 269 262 276 268 276 268 272 270 281 273 258 259 268 275 288 294 316 302
305 295 281 355 327 330 334 348 344 330 336 348 359 372 388 394 383 386 404 389 331 328 311 303 304 288 304 286 295 294 280 295 286 286 276 278 278 276 273 276 268 262 265 271 274 277 272 288 282 297 309 302 285 297
278 296 297 282 307 341 333 326 334 327 340 332 330 333 331 328 336 345 341 336 327 333 314 303 284 292 295 285 280 284 286 294 272 281 281 277 270 275 280 274 267 273 283 262 280 286 293 286 285 287 313 294 289 289
274 279 277 299 290 280 343 344 341 345 332 319 314 313 317 307 297 290 285 280 322 291 319 297 292 262 290 279 294 274 291 295 297 264 274 292 300 302 289 279 259 282 278 278 271 300 287 284 296 324 310 288 279 290
282 274 272 270 279 294 285 275 342 365 336 327 321 320 308 314 315 305 311 294 281 299 305 309 301 294 286 285 268 310 267 268 269 263 271 270 266 261 274 293 307 298 239 287 279 262 261 314 345 312 296 283 280 288
282 280 279 267 271 268 296 291 280 270 332 349 334 331 323 294 308 298 282 296 278 312 285 289 291 294 274 286 279 280 282 282 283 284 289 294 286 264 277 301 277 277 261 267 264 269 310 326 311 297 287 283 287 289
288 282 280 277 268 264 267 269 295 285 277 268 305 339 336 322 314 314 308 301 292 290 288 284 291 293 285 289 303 291 297 293 292 295 292 281 290 286 300 310 371 381 393 274 285 288 325 309 299 295 292 287 290 277
279 289 288 282 277 273 270 267 264 296 289 285 280 269 264 310 340 332 327 325 324 329 329 317 326 330 327 274 273 268 272 314 284 285 292 354 363 352 336 355 361 331 331 331 328 314 304 298 288 290 291 302 279 282
282 285 285 288 275 280 277 271 268 264 266 271 291 283 279 271 266 265 281 313 327 322 320 319 325 326 328 337 370 371 349 335 333 329 330 335 338 347 348 344 333 325 313 310 306 301 296 292 298 290 316 290 283 278
296 292 289 266 283 273 278 277 273 266 262 264 268 258 301 288 278 271 266 262 260 261 275 301 323 329 329 327 328 338 335 336 331 334 333 341 346 336 315 317 306 300 299 300 296 291 295 300 312 310 290 279 274 267
309 295 298 288 285 277 283 265 284 277 279 268 263 265 268 264 299 302 278 274 269 268 264 261 260 260 273 321 323 320 318 318 323 325 334 316 310 314 301 298 302 300 294 290 298 304 305 307 290 280 273 268 261 255
324 307 302 289 290 287 290 291 294 274 273 279 280 263 263 267 268 263 263 321 294 282 277 274 272 268 264 261 259 256 253 251 259 318 320 319 314 310 309 305 307 310 311 312 308 298 284 275 252 251 250 249 249 248
333 328 314 305 297 297 283 282 284 286 276 285 280 281 280 262 261 264 269 267 260 264 301 302 285 278 275 271 269 265 262 263 262 260 258 256 255 257 256 256 256 254 252 253 255 254 253 252 251 250 250 249 249 249
320 330 332 321 311 303 298 292 290 288 283 290 289 287 280 286 271 266 266 265 272 271 265 263 294 341 301 284 277 274 269 266 265 264 264 263 263 262 261 259 258 257 255 255 255 254 255 255 254 253 252 252 253 253
308 316 332 330 329 317 302 301 299 295 288 293 297 295 277 271 272 284 278 265 263 266 271 274 266 264 264 278 347 311 298 289 281 277 274 273 270 267 265 265 265 265 264 264 263 263 262 262 262 263 264 267 269 271
347 341 354 333 324 327 323 317 311 307 298 299 297 299 302 283 278 278 285 289 287 275 267 262 268 272 271 266 263 260 263 271 337 332 320 313 305 299 293 289 286 286 283 284 285 285 288 290 293 298 302 305 308 309
414 366 347 352 340 325 318 320 315 312 311 309 308 307 304 302 302 299 278 277 285 294 282 277 273 267 267 269 271 273 270 268 265 264 260 258 259 262 265 263 304 305 305 303 303 263 273 274 267 269 272 279 340 337
411 420 413 362 350 343 333 327 323 321 319 312 310 315 311 310 308 306 301 249 259 289 293 286 281 275 277 264 263 271 274 271 268 269 275 275 274 272 270 270 266 262 262 264 263 262 260 261 262 264 266 277 351 347
431 409 394 402 414 361 347 346 345 340 331 328 326 327 327 326 323 327 330 330 325 325 302 288 294 275 277 279 280 278 265 269 276 281 282 284 285 280 277 275 274 273 275 280 282 279 284 278 265 268 269 278 356 348
431 444 443 405 395 388 390 396 408 353 335 345 352 360 353 343 327 331 326 307 308 317 320 277 271 284 271 266 268 277 280 278 272 271 270 268 275 281 294 294 293 292 291 286 285 282 286 286 281 271 269 279 354 346

GFSWCAN_2pvu_pres_171.txt.gz
Presure
374 389 390 389 384 390 384 396 408 414 458 407 303 291 288 285 280 277 276 275 277 281 285 282 280 279 286 299 317 319 314 311 302 274 288 293 337 355 464 325 313 306 294 280 293 304 304 315 308 306 300 327 320 302
388 386 386 393 398 393 376 370 369 414 431 447 445 414 396 304 294 288 286 286 289 296 299 291 288 290 293 306 317 308 305 311 310 324 319 340 399 404 385 348 319 310 303 296 290 297 302 283 276 278 270 298 302 292
379 381 392 443 419 393 384 386 361 412 414 428 434 422 401 367 340 344 324 309 305 300 299 294 295 294 304 307 308 304 308 312 314 322 330 338 332 373 400 433 324 315 302 303 294 288 277 272 300 278 262 274 280 278
375 373 385 393 394 387 375 380 400 400 402 385 396 412 390 369 342 333 333 323 312 307 301 299 302 304 304 305 303 304 309 313 316 314 331 331 330 328 361 416 347 314 309 300 302 279 279 291 278 290 271 276 269 267
372 372 392 385 383 387 393 396 406 394 387 384 411 404 388 392 342 344 341 334 324 316 310 312 312 303 301 302 301 305 316 313 326 326 330 342 340 342 335 366 421 324 310 302 292 297 280 279 270 269 283 273 266 277
375 380 374 369 368 367 368 368 377 370 335 330 334 380 365 365 363 353 340 331 328 325 323 312 303 299 298 301 304 313 309 317 341 335 332 341 336 352 351 347 371 377 323 303 294 281 281 270 271 283 268 258 267 303
367 367 360 350 350 351 355 347 349 353 371 368 359 352 347 346 343 334 323 320 323 316 310 302 300 299 303 308 309 314 323 318 360 362 369 383 340 370 370 333 346 388 374 312 292 280 278 272 267 257 263 264 258 253
361 367 351 343 337 333 340 334 337 335 333 353 346 340 335 335 331 326 324 321 313 309 309 306 303 308 307 306 302 323 311 346 349 350 333 329 336 343 321 328 346 370 392 316 291 274 276 268 269 263 258 259 262 267
358 350 356 337 341 326 329 322 316 318 309 310 317 309 344 327 322 318 318 314 313 314 315 314 310 307 305 304 316 295 327 333 322 308 313 316 315 320 336 344 357 369 394 367 304 272 270 266 268 267 262 265 270 269
342 348 350 338 331 334 331 328 318 316 307 309 323 328 330 291 315 308 307 315 311 315 307 302 305 294 284 323 308 310 334 331 299 307 333 342 337 372 464 368 405 355 341 325 301 277 270 267 268 276 272 271 273 273
354 338 332 336 335 335 327 323 317 323 325 321 317 313 310 313 311 320 321 326 323 312 304 297 290 297 315 312 308 313 326 309 335 308 298 300 303 309 318 318 314 309 301 297 291 276 269 268 271 269 270 274 272 286
371 351 338 329 326 344 333 331 320 315 304 300 298 300 294 320 326 318 316 320 310 293 282 286 316 313 290 307 311 325 301 302 297 301 289 290 296 297 301 307 306 308 297 286 282 273 271 266 260 261 268 285 290 282
333 366 359 338 339 337 319 323 319 313 309 305 300 298 309 295 302 304 314 300 301 305 287 304 301 294 311 309 304 310 290 291 287 298 283 294 286 280 277 282 283 283 281 283 282 282 283 284 292 286 282 275 276 274
300 342 367 351 348 339 342 346 319 320 317 310 310 313 310 307 306 303 320 309 299 287 269 292 291 301 305 316 304 290 291 279 285 280 283 286 281 270 290 271 268 270 272 274 272 275 272 271 264 274 276 281 277 276
284 289 292 377 364 353 348 340 339 337 328 322 321 321 318 325 317 313 310 307 281 301 302 294 305 305 304 300 295 283 280 297 269 257 272 276 270 269 278 271 273 270 268 272 273 278 276 285 272 277 281 276 290 265
284 287 278 296 294 349 341 340 337 335 334 335 337 333 328 325 322 322 326 327 320 294 289 294 286 305 310 293 289 281 285 273 280 271 276 277 269 268 266 269 271 277 273 272 270 276 260 267 268 269 272 280 283 268
284 283 287 276 282 290 342 345 341 332 326 317 317 346 358 362 365 364 372 349 335 295 302 293 301 301 307 288 282 286 283 284 273 270 270 289 286 276 280 271 271 275 272 252 271 276 275 265 280 275 284 254 262 280
282 282 289 283 276 297 288 280 339 331 304 312 319 316 326 335 340 357 388 396 403 417 323 286 291 299 297 313 289 285 284 265 270 274 283 271 261 292 287 266 270 274 271 272 273 271 275 277 282 275 284 269 292 280
288 282 282 272 280 275 272 289 285 335 319 316 323 320 315 305 301 348 363 359 338 313 307 298 306 300 280 305 280 285 292 298 287 281 274 290 288 272 283 288 279 281 285 281 276 292 278 289 286 285 284 281 294 300
292 285 279 281 271 280 272 271 293 284 292 330 319 311 302 295 317 319 300 330 322 316 301 301 301 318 300 285 288 288 285 284 275 285 282 284 265 304 288 284 287 282 276 280 289 278 259 263 273 392 315 261 284 288
299 294 288 280 278 265 283 276 271 290 286 281 304 328 314 307 295 295 302 299 308 298 291 308 293 289 308 297 282 280 272 280 278 280 283 287 292 295 310 274 275 286 286 295 302 364 381 387 367 349 341 326 267 322
318 304 293 288 277 274 284 280 277 265 270 284 287 280 277 317 321 319 317 312 294 291 290 290 292 293 293 293 296 299 301 306 319 321 322 331 339 355 356 365 350 372 359 330 341 343 329 320 310 311 305 314 308 305
326 314 303 290 283 285 277 281 279 284 274 269 263 275 286 278 276 271 299 325 321 322 325 325 322 325 327 329 322 322 325 324 327 328 330 368 337 329 334 335 333 338 348 344 332 322 321 326 318 314 310 305 300 295
337 322 317 303 296 286 287 278 282 273 280 272 270 267 265 278 289 276 276 272 269 263 260 265 275 286 297 309 318 321 315 312 314 315 321 334 335 340 340 342 344 340 335 326 318 314 309 305 301 297 297 295 297 303
347 307 331 324 311 296 288 285 281 277 280 273 280 281 275 270 261 263 265 284 286 278 270 263 262 260 259 258 257 262 267 269 273 296 312 316 326 334 321 323 316 311 311 314 308 304 300 298 296 298 306 305 304 299
346 324 339 328 327 320 304 294 291 283 285 278 278 274 277 283 276 268 265 268 270 260 290 301 290 283 275 272 270 265 263 262 258 259 258 257 257 257 260 259 258 259 257 260 259 259 259 259 258 257 257 257 258 259
371 353 332 347 328 331 326 317 306 293 293 283 281 280 280 280 280 274 273 267 276 266 265 264 260 260 280 260 273 290 283 278 274 271 268 267 266 264 262 261 261 261 261 261 261 261 262 262 264 265 266 267 268 268
400 382 364 343 335 336 333 325 317 310 300 291 290 287 288 282 276 278 277 276 277 280 278 270 267 263 262 263 263 257 263 297 306 297 289 284 280 277 277 276 276 276 276 277 276 276 274 275 276 276 278 279 280 279
435 441 409 386 368 346 343 330 329 324 317 311 306 297 291 288 282 276 274 278 271 274 279 271 277 277 274 270 265 263 266 267 263 261 260 259 261 300 295 296 295 294 293 293 292 291 292 294 292 293 265 259 254 253
448 443 430 430 415 392 371 342 334 328 326 321 320 313 303 298 292 288 287 284 280 277 274 270 284 281 281 280 273 271 269 267 263 266 270 267 265 263 260 259 261 260 259 259 260 259 258 261 264 264 265 271 269 271
458 454 443 431 426 413 401 383 348 319 327 336 324 301 324 315 303 298 295 290 288 285 275 279 279 280 276 264 268 274 282 283 266 265 265 262 263 266 273 273 271 270 272 272 270 270 268 265 271 273 275 276 279 278
443 437 435 450 436 427 411 402 388 377 366 344 333 339 325 317 319 317 308 298 296 294 291 287 287 287 291 289 285 293 278 277 283 285 273 269 267 268 265 263 265 271 274 275 278 280 277 278 283 287 289 293 300 298
506 504 465 442 432 443 432 417 401 397 387 376 366 350 335 322 329 321 317 317 315 305 292 295 292 293 295 294 294 289 289 283 286 279 282 292 274 267 273 274 272 265 262 262 264 263 262 259 259 258 257 258 260 264